owner,sensor,date,latitude,longitude,vertical_datum,wind_speed,wind_to_direction,wind_speed_of_gust,qcFlag 
WAVCIS,ioos:station:WAVCIS:CSI09:1,2010-05-01T00:00:00Z,29.1015,-89.9782,0.0,7.66,141.0,,'11111222,11111222,99999999' 
WAVCIS,ioos:station:WAVCIS:CSI09:1,2010-05-01T01:00:00Z,29.1015,-89.9782,0.0,7.31,143.0,,'11111222,11111222,99999999' 
WAVCIS,ioos:station:WAVCIS:CSI09:1,2010-05-01T02:00:00Z,29.1015,-89.9782,0.0,7.36,147.0,,'11111222,11111222,99999999' 
WAVCIS,ioos:station:WAVCIS:CSI09:1,2010-05-01T03:00:00Z,29.1015,-89.9782,0.0,7.83,141.0,,'11111222,11111222,99999999' 
WAVCIS,ioos:station:WAVCIS:CSI09:1,2010-05-01T04:00:00Z,29.1015,-89.9782,0.0,7.61,135.0,,'11111222,11111222,99999999' 
WAVCIS,ioos:station:WAVCIS:CSI09:1,2010-05-01T05:00:00Z,29.1015,-89.9782,0.0,8.33,133.0,,'11111222,11111222,99999999' 
WAVCIS,ioos:station:WAVCIS:CSI09:1,2010-05-01T06:00:00Z,29.1015,-89.9782,0.0,8.83,132.0,,'11111222,11111222,99999999' 
WAVCIS,ioos:station:WAVCIS:CSI09:1,2010-05-01T07:00:00Z,29.1015,-89.9782,0.0,9.18,134.0,,'11111222,11111222,99999999' 
WAVCIS,ioos:station:WAVCIS:CSI09:1,2010-05-01T08:00:00Z,29.1015,-89.9782,0.0,10.07,139.0,,'11111222,11111222,99999999' 
WAVCIS,ioos:station:WAVCIS:CSI09:1,2010-05-01T09:00:00Z,29.1015,-89.9782,0.0,10.48,144.0,,'11111222,11111222,99999999' 
WAVCIS,ioos:station:WAVCIS:CSI09:1,2010-05-01T10:00:00Z,29.1015,-89.9782,0.0,10.61,145.0,,'11111222,11111222,99999999' 
WAVCIS,ioos:station:WAVCIS:CSI09:1,2010-05-01T11:00:00Z,29.1015,-89.9782,0.0,10.01,144.0,,'11111222,11111222,99999999' 
WAVCIS,ioos:station:WAVCIS:CSI09:1,2010-05-01T12:00:00Z,29.1015,-89.9782,0.0,9.84,146.0,,'11111222,11111222,99999999' 
WAVCIS,ioos:station:WAVCIS:CSI09:1,2010-05-01T13:00:00Z,29.1015,-89.9782,0.0,10.73,148.0,,'11111222,11111222,99999999' 
WAVCIS,ioos:station:WAVCIS:CSI09:1,2010-05-01T14:00:00Z,29.1015,-89.9782,0.0,10.39,149.0,,'11111222,11111222,99999999' 
WAVCIS,ioos:station:WAVCIS:CSI09:1,2010-05-01T15:00:00Z,29.1015,-89.9782,0.0,9.59,155.0,,'11111222,11111222,99999999' 
WAVCIS,ioos:station:WAVCIS:CSI09:1,2010-05-01T16:00:00Z,29.1015,-89.9782,0.0,9.86,150.0,,'11111222,11111222,99999999' 
WAVCIS,ioos:station:WAVCIS:CSI09:1,2010-05-01T17:00:00Z,29.1015,-89.9782,0.0,9.6,151.0,,'11111222,11111222,99999999' 
WAVCIS,ioos:station:WAVCIS:CSI09:1,2010-05-01T18:00:00Z,29.1015,-89.9782,0.0,10.64,151.0,,'11111222,11111222,99999999' 
WAVCIS,ioos:station:WAVCIS:CSI09:1,2010-05-01T19:00:00Z,29.1015,-89.9782,0.0,10.68,149.0,,'11111222,11111222,99999999' 
WAVCIS,ioos:station:WAVCIS:CSI09:1,2010-05-01T20:00:00Z,29.1015,-89.9782,0.0,11.43,149.0,,'11111222,11111222,99999999' 
WAVCIS,ioos:station:WAVCIS:CSI09:1,2010-05-01T21:00:00Z,29.1015,-89.9782,0.0,11.45,149.0,,'11111222,11111222,99999999' 
WAVCIS,ioos:station:WAVCIS:CSI09:1,2010-05-01T22:00:00Z,29.1015,-89.9782,0.0,11.66,148.0,,'11111222,11111222,99999999' 
WAVCIS,ioos:station:WAVCIS:CSI09:1,2010-05-01T23:00:00Z,29.1015,-89.9782,0.0,11.34,146.0,,'11111222,11111222,99999999' 
WAVCIS,ioos:station:WAVCIS:CSI09:1,2010-05-02T00:00:00Z,29.1015,-89.9782,0.0,11.63,149.0,,'11111222,11111222,99999999' 
WAVCIS,ioos:station:WAVCIS:CSI09:1,2010-05-02T01:00:00Z,29.1015,-89.9782,0.0,11.48,153.0,,'11111222,11111222,99999999' 
WAVCIS,ioos:station:WAVCIS:CSI09:1,2010-05-02T02:00:00Z,29.1015,-89.9782,0.0,10.98,156.0,,'11111222,11111222,99999999' 
WAVCIS,ioos:station:WAVCIS:CSI09:1,2010-05-02T03:00:00Z,29.1015,-89.9782,0.0,10.81,153.0,,'11111222,11111222,99999999' 
WAVCIS,ioos:station:WAVCIS:CSI09:1,2010-05-02T04:00:00Z,29.1015,-89.9782,0.0,11.78,153.0,,'11111222,11111222,99999999' 
WAVCIS,ioos:station:WAVCIS:CSI09:1,2010-05-02T05:00:00Z,29.1015,-89.9782,0.0,12.31,151.0,,'11111222,11111222,99999999' 
WAVCIS,ioos:station:WAVCIS:CSI09:1,2010-05-02T06:00:00Z,29.1015,-89.9782,0.0,12.34,153.0,,'11111222,11111222,99999999' 
WAVCIS,ioos:station:WAVCIS:CSI09:1,2010-05-02T07:00:00Z,29.1015,-89.9782,0.0,13.15,153.0,,'11111222,11111222,99999999' 
WAVCIS,ioos:station:WAVCIS:CSI09:1,2010-05-02T08:00:00Z,29.1015,-89.9782,0.0,12.85,154.0,,'11111222,11111222,99999999' 
WAVCIS,ioos:station:WAVCIS:CSI09:1,2010-05-02T09:00:00Z,29.1015,-89.9782,0.0,13.17,152.0,,'11111222,11111222,99999999' 
WAVCIS,ioos:station:WAVCIS:CSI09:1,2010-05-02T10:00:00Z,29.1015,-89.9782,0.0,14.75,156.0,,'11111222,11111222,99999999' 
WAVCIS,ioos:station:WAVCIS:CSI09:1,2010-05-02T11:00:00Z,29.1015,-89.9782,0.0,14.75,160.0,,'11111222,11111222,99999999' 
WAVCIS,ioos:station:WAVCIS:CSI09:1,2010-05-02T12:00:00Z,29.1015,-89.9782,0.0,12.87,163.0,,'11111222,11111222,99999999' 
WAVCIS,ioos:station:WAVCIS:CSI09:1,2010-05-02T13:00:00Z,29.1015,-89.9782,0.0,12.95,168.0,,'11111222,11111222,99999999' 
WAVCIS,ioos:station:WAVCIS:CSI09:1,2010-05-02T14:00:00Z,29.1015,-89.9782,0.0,14.08,168.0,,'11111222,11111222,99999999' 
WAVCIS,ioos:station:WAVCIS:CSI09:1,2010-05-02T15:00:00Z,29.1015,-89.9782,0.0,12.69,172.0,,'11111222,11111222,99999999' 
WAVCIS,ioos:station:WAVCIS:CSI09:1,2010-05-02T16:00:00Z,29.1015,-89.9782,0.0,13.44,175.0,,'11111222,11111222,99999999' 
WAVCIS,ioos:station:WAVCIS:CSI09:1,2010-05-02T17:00:00Z,29.1015,-89.9782,0.0,12.03,175.0,,'11111222,11111222,99999999' 
WAVCIS,ioos:station:WAVCIS:CSI09:1,2010-05-02T18:00:00Z,29.1015,-89.9782,0.0,11.62,175.0,,'11111222,11111222,99999999' 
WAVCIS,ioos:station:WAVCIS:CSI09:1,2010-05-02T19:00:00Z,29.1015,-89.9782,0.0,13.14,176.0,,'11111222,11111222,99999999' 
WAVCIS,ioos:station:WAVCIS:CSI09:1,2010-05-02T20:00:00Z,29.1015,-89.9782,0.0,12.94,174.0,,'11111222,11111222,99999999' 
WAVCIS,ioos:station:WAVCIS:CSI09:1,2010-05-02T21:00:00Z,29.1015,-89.9782,0.0,12.23,175.0,,'11111222,11111222,99999999' 
WAVCIS,ioos:station:WAVCIS:CSI09:1,2010-05-02T22:00:00Z,29.1015,-89.9782,0.0,11.7,175.0,,'11111222,11111222,99999999' 
WAVCIS,ioos:station:WAVCIS:CSI09:1,2010-05-02T23:00:00Z,29.1015,-89.9782,0.0,9.92,175.0,,'11111222,11111222,99999999' 
WAVCIS,ioos:station:WAVCIS:CSI09:1,2010-05-03T00:00:00Z,29.1015,-89.9782,0.0,10.44,174.0,,'11111222,11111222,99999999' 
WAVCIS,ioos:station:WAVCIS:CSI09:1,2010-05-03T01:00:00Z,29.1015,-89.9782,0.0,10.23,175.0,,'11111222,11111222,99999999' 
WAVCIS,ioos:station:WAVCIS:CSI09:1,2010-05-03T02:00:00Z,29.1015,-89.9782,0.0,9.39,175.0,,'11111222,11111222,99999999' 
WAVCIS,ioos:station:WAVCIS:CSI09:1,2010-05-03T03:00:00Z,29.1015,-89.9782,0.0,8.99,175.0,,'11111222,11111222,99999999' 
WAVCIS,ioos:station:WAVCIS:CSI09:1,2010-05-03T04:00:00Z,29.1015,-89.9782,0.0,9.07,171.0,,'11111222,11111222,99999999' 
WAVCIS,ioos:station:WAVCIS:CSI09:1,2010-05-03T05:00:00Z,29.1015,-89.9782,0.0,8.94,175.0,,'11111222,11111222,99999999' 
WAVCIS,ioos:station:WAVCIS:CSI09:1,2010-05-03T06:00:00Z,29.1015,-89.9782,0.0,6.019,186.0,,'11111222,11111222,99999999' 
WAVCIS,ioos:station:WAVCIS:CSI09:1,2010-05-03T07:00:00Z,29.1015,-89.9782,0.0,4.192,198.0,,'11111222,11111222,99999999' 
WAVCIS,ioos:station:WAVCIS:CSI09:1,2010-05-03T08:00:00Z,29.1015,-89.9782,0.0,4.54,189.0,,'11111222,11111222,99999999' 
WAVCIS,ioos:station:WAVCIS:CSI09:1,2010-05-03T09:00:00Z,29.1015,-89.9782,0.0,3.061,202.0,,'11111222,11111222,99999999' 
WAVCIS,ioos:station:WAVCIS:CSI09:1,2010-05-03T10:00:00Z,29.1015,-89.9782,0.0,4.755,224.0,,'11111222,11111222,99999999' 
WAVCIS,ioos:station:WAVCIS:CSI09:1,2010-05-03T11:00:00Z,29.1015,-89.9782,0.0,4.608,226.0,,'11111222,11111222,99999999' 
WAVCIS,ioos:station:WAVCIS:CSI09:1,2010-05-03T12:00:00Z,29.1015,-89.9782,0.0,4.122,230.0,,'11111222,11111222,99999999' 
WAVCIS,ioos:station:WAVCIS:CSI09:1,2010-05-03T13:00:00Z,29.1015,-89.9782,0.0,4.363,232.0,,'11111222,11111222,99999999' 
WAVCIS,ioos:station:WAVCIS:CSI09:1,2010-05-03T14:00:00Z,29.1015,-89.9782,0.0,3.587,255.0,,'11111222,11111222,99999999' 
WAVCIS,ioos:station:WAVCIS:CSI09:1,2010-05-03T15:00:00Z,29.1015,-89.9782,0.0,4.346,297.0,,'11111222,11111222,99999999' 
WAVCIS,ioos:station:WAVCIS:CSI09:1,2010-05-03T16:00:00Z,29.1015,-89.9782,0.0,3.101,351.0,,'11111222,11111222,99999999' 
WAVCIS,ioos:station:WAVCIS:CSI09:1,2010-05-03T17:00:00Z,29.1015,-89.9782,0.0,5.497,12.0,,'11111222,11111222,99999999' 
WAVCIS,ioos:station:WAVCIS:CSI09:1,2010-05-03T18:00:00Z,29.1015,-89.9782,0.0,7.42,22.0,,'11111222,11111222,99999999' 
WAVCIS,ioos:station:WAVCIS:CSI09:1,2010-05-03T19:00:00Z,29.1015,-89.9782,0.0,7.24,68.0,,'11111222,11111222,99999999' 
WAVCIS,ioos:station:WAVCIS:CSI09:1,2010-05-03T20:00:00Z,29.1015,-89.9782,0.0,7.23,68.0,,'11111222,11111222,99999999' 
WAVCIS,ioos:station:WAVCIS:CSI09:1,2010-05-03T21:00:00Z,29.1015,-89.9782,0.0,6.321,67.0,,'11111222,11111222,99999999' 
WAVCIS,ioos:station:WAVCIS:CSI09:1,2010-05-03T22:00:00Z,29.1015,-89.9782,0.0,7.12,75.0,,'11111222,11111222,99999999' 
WAVCIS,ioos:station:WAVCIS:CSI09:1,2010-05-03T23:00:00Z,29.1015,-89.9782,0.0,8.44,71.0,,'11111222,11111222,99999999' 
WAVCIS,ioos:station:WAVCIS:CSI09:1,2010-05-04T00:00:00Z,29.1015,-89.9782,0.0,7.77,76.0,,'11111222,11111222,99999999' 
WAVCIS,ioos:station:WAVCIS:CSI09:1,2010-05-04T01:00:00Z,29.1015,-89.9782,0.0,5.981,82.0,,'11111222,11111222,99999999' 
WAVCIS,ioos:station:WAVCIS:CSI09:1,2010-05-04T02:00:00Z,29.1015,-89.9782,0.0,5.419,89.0,,'11111222,11111222,99999999' 
WAVCIS,ioos:station:WAVCIS:CSI09:1,2010-05-04T03:00:00Z,29.1015,-89.9782,0.0,5.05,81.0,,'11111222,11111222,99999999' 
WAVCIS,ioos:station:WAVCIS:CSI09:1,2010-05-04T04:00:00Z,29.1015,-89.9782,0.0,3.962,87.0,,'11111222,11111222,99999999' 
WAVCIS,ioos:station:WAVCIS:CSI09:1,2010-05-04T05:00:00Z,29.1015,-89.9782,0.0,2.224,110.0,,'11111222,11111222,99999999' 
WAVCIS,ioos:station:WAVCIS:CSI09:1,2010-05-04T06:00:00Z,29.1015,-89.9782,0.0,2.937,181.0,,'11111222,11111222,99999999' 
WAVCIS,ioos:station:WAVCIS:CSI09:1,2010-05-04T07:00:00Z,29.1015,-89.9782,0.0,2.506,220.0,,'11111222,11111222,99999999' 
WAVCIS,ioos:station:WAVCIS:CSI09:1,2010-05-04T08:00:00Z,29.1015,-89.9782,0.0,2.433,307.0,,'11111222,11111222,99999999' 
WAVCIS,ioos:station:WAVCIS:CSI09:1,2010-05-04T09:00:00Z,29.1015,-89.9782,0.0,5.234,353.0,,'11111222,11111222,99999999' 
WAVCIS,ioos:station:WAVCIS:CSI09:1,2010-05-04T10:00:00Z,29.1015,-89.9782,0.0,3.678,9.0,,'11111222,11111222,99999999' 
WAVCIS,ioos:station:WAVCIS:CSI09:1,2010-05-04T11:00:00Z,29.1015,-89.9782,0.0,5.153,4.0,,'11111222,11111222,99999999' 
WAVCIS,ioos:station:WAVCIS:CSI09:1,2010-05-04T12:00:00Z,29.1015,-89.9782,0.0,8.5,14.0,,'11111222,11111222,99999999' 
WAVCIS,ioos:station:WAVCIS:CSI09:1,2010-05-04T13:00:00Z,29.1015,-89.9782,0.0,9.65,8.0,,'11111222,11111222,99999999' 
WAVCIS,ioos:station:WAVCIS:CSI09:1,2010-05-04T14:00:00Z,29.1015,-89.9782,0.0,7.47,30.0,,'11111222,11111222,99999999' 
WAVCIS,ioos:station:WAVCIS:CSI09:1,2010-05-04T15:00:00Z,29.1015,-89.9782,0.0,8.87,8.0,,'11111222,11111222,99999999' 
WAVCIS,ioos:station:WAVCIS:CSI09:1,2010-05-04T16:00:00Z,29.1015,-89.9782,0.0,7.65,32.0,,'11111222,11111222,99999999' 
WAVCIS,ioos:station:WAVCIS:CSI09:1,2010-05-04T17:00:00Z,29.1015,-89.9782,0.0,6.66,33.0,,'11111222,11111222,99999999' 
WAVCIS,ioos:station:WAVCIS:CSI09:1,2010-05-04T18:00:00Z,29.1015,-89.9782,0.0,4.937,34.0,,'11111222,11111222,99999999' 
WAVCIS,ioos:station:WAVCIS:CSI09:1,2010-05-04T19:00:00Z,29.1015,-89.9782,0.0,5.558,42.0,,'11111222,11111222,99999999' 
WAVCIS,ioos:station:WAVCIS:CSI09:1,2010-05-04T20:00:00Z,29.1015,-89.9782,0.0,4.736,53.0,,'11111222,11111222,99999999' 
WAVCIS,ioos:station:WAVCIS:CSI09:1,2010-05-04T21:00:00Z,29.1015,-89.9782,0.0,4.193,60.0,,'11111222,11111222,99999999' 
WAVCIS,ioos:station:WAVCIS:CSI09:1,2010-05-04T22:00:00Z,29.1015,-89.9782,0.0,4.417,76.0,,'11111222,11111222,99999999' 
WAVCIS,ioos:station:WAVCIS:CSI09:1,2010-05-04T23:00:00Z,29.1015,-89.9782,0.0,4.108,86.0,,'11111222,11111222,99999999' 
WAVCIS,ioos:station:WAVCIS:CSI09:1,2010-05-05T00:00:00Z,29.1015,-89.9782,0.0,2.881,108.0,,'11111222,11111222,99999999' 
WAVCIS,ioos:station:WAVCIS:CSI09:1,2010-05-05T01:00:00Z,29.1015,-89.9782,0.0,3.571,119.0,,'11111222,11111222,99999999' 
WAVCIS,ioos:station:WAVCIS:CSI09:1,2010-05-05T02:00:00Z,29.1015,-89.9782,0.0,3.255,126.0,,'11111222,11111222,99999999' 
WAVCIS,ioos:station:WAVCIS:CSI09:1,2010-05-05T03:00:00Z,29.1015,-89.9782,0.0,2.787,141.0,,'11111222,11111222,99999999' 
WAVCIS,ioos:station:WAVCIS:CSI09:1,2010-05-05T04:00:00Z,29.1015,-89.9782,0.0,1.561,171.0,,'11111222,11111222,99999999' 
WAVCIS,ioos:station:WAVCIS:CSI09:1,2010-05-05T05:00:00Z,29.1015,-89.9782,0.0,2.599,222.0,,'11111222,11111222,99999999' 
WAVCIS,ioos:station:WAVCIS:CSI09:1,2010-05-05T06:00:00Z,29.1015,-89.9782,0.0,3.777,232.0,,'11111222,11111222,99999999' 
WAVCIS,ioos:station:WAVCIS:CSI09:1,2010-05-05T07:00:00Z,29.1015,-89.9782,0.0,3.03,244.0,,'11111222,11111222,99999999' 
WAVCIS,ioos:station:WAVCIS:CSI09:1,2010-05-05T08:00:00Z,29.1015,-89.9782,0.0,2.333,249.0,,'11111222,11111222,99999999' 
WAVCIS,ioos:station:WAVCIS:CSI09:1,2010-05-05T09:00:00Z,29.1015,-89.9782,0.0,1.51,256.0,,'11111222,11111222,99999999' 
WAVCIS,ioos:station:WAVCIS:CSI09:1,2010-05-05T10:00:00Z,29.1015,-89.9782,0.0,1.271,309.0,,'11111222,11111222,99999999' 
WAVCIS,ioos:station:WAVCIS:CSI09:1,2010-05-05T11:00:00Z,29.1015,-89.9782,0.0,2.152,326.0,,'11111222,11111222,99999999' 
WAVCIS,ioos:station:WAVCIS:CSI09:1,2010-05-05T12:00:00Z,29.1015,-89.9782,0.0,3.068,325.0,,'11111222,11111222,99999999' 
WAVCIS,ioos:station:WAVCIS:CSI09:1,2010-05-05T13:00:00Z,29.1015,-89.9782,0.0,2.295,343.0,,'11111222,11111222,99999999' 
WAVCIS,ioos:station:WAVCIS:CSI09:1,2010-05-05T14:00:00Z,29.1015,-89.9782,0.0,2.119,359.0,,'11111222,11111222,99999999' 
WAVCIS,ioos:station:WAVCIS:CSI09:1,2010-05-05T15:00:00Z,29.1015,-89.9782,0.0,2.665,346.0,,'11111222,11111222,99999999' 
WAVCIS,ioos:station:WAVCIS:CSI09:1,2010-05-05T16:00:00Z,29.1015,-89.9782,0.0,2.407,76.0,,'11111222,11111222,99999999' 
WAVCIS,ioos:station:WAVCIS:CSI09:1,2010-05-05T17:00:00Z,29.1015,-89.9782,0.0,3.195,141.0,,'11111222,11111222,99999999' 
WAVCIS,ioos:station:WAVCIS:CSI09:1,2010-05-05T18:00:00Z,29.1015,-89.9782,0.0,2.91,153.0,,'11111222,11111222,99999999' 
WAVCIS,ioos:station:WAVCIS:CSI09:1,2010-05-05T19:00:00Z,29.1015,-89.9782,0.0,3.149,158.0,,'11111222,11111222,99999999' 
WAVCIS,ioos:station:WAVCIS:CSI09:1,2010-05-05T20:00:00Z,29.1015,-89.9782,0.0,3.183,159.0,,'11111222,11111222,99999999' 
WAVCIS,ioos:station:WAVCIS:CSI09:1,2010-05-05T21:00:00Z,29.1015,-89.9782,0.0,3.763,170.0,,'11111222,11111222,99999999' 
WAVCIS,ioos:station:WAVCIS:CSI09:1,2010-05-05T22:00:00Z,29.1015,-89.9782,0.0,3.303,171.0,,'11111222,11111222,99999999' 
WAVCIS,ioos:station:WAVCIS:CSI09:1,2010-05-05T23:00:00Z,29.1015,-89.9782,0.0,2.027,202.0,,'11111222,11111222,99999999' 
WAVCIS,ioos:station:WAVCIS:CSI09:1,2010-05-06T00:00:00Z,29.1015,-89.9782,0.0,2.69,168.0,,'11111222,11111222,99999999' 
WAVCIS,ioos:station:WAVCIS:CSI09:1,2010-05-06T01:00:00Z,29.1015,-89.9782,0.0,1.853,183.0,,'11111222,11111222,99999999' 
WAVCIS,ioos:station:WAVCIS:CSI09:1,2010-05-06T02:00:00Z,29.1015,-89.9782,0.0,2.076,172.0,,'11111222,11111222,99999999' 
WAVCIS,ioos:station:WAVCIS:CSI09:1,2010-05-06T03:00:00Z,29.1015,-89.9782,0.0,1.704,185.0,,'11111222,11111222,99999999' 
WAVCIS,ioos:station:WAVCIS:CSI09:1,2010-05-06T04:00:00Z,29.1015,-89.9782,0.0,2.45,179.0,,'11111222,11111222,99999999' 
WAVCIS,ioos:station:WAVCIS:CSI09:1,2010-05-06T05:00:00Z,29.1015,-89.9782,0.0,2.443,195.0,,'11111222,11111222,99999999' 
WAVCIS,ioos:station:WAVCIS:CSI09:1,2010-05-06T06:00:00Z,29.1015,-89.9782,0.0,2.299,225.0,,'11111222,11111222,99999999' 
WAVCIS,ioos:station:WAVCIS:CSI09:1,2010-05-06T07:00:00Z,29.1015,-89.9782,0.0,2.043,210.0,,'11111222,11111222,99999999' 
WAVCIS,ioos:station:WAVCIS:CSI09:1,2010-05-06T08:00:00Z,29.1015,-89.9782,0.0,1.705,193.0,,'11111222,11111222,99999999' 
WAVCIS,ioos:station:WAVCIS:CSI09:1,2010-05-06T09:00:00Z,29.1015,-89.9782,0.0,1.7,213.0,,'11111222,11111222,99999999' 
WAVCIS,ioos:station:WAVCIS:CSI09:1,2010-05-06T10:00:00Z,29.1015,-89.9782,0.0,1.911,243.0,,'11111222,11111222,99999999' 
WAVCIS,ioos:station:WAVCIS:CSI09:1,2010-05-06T11:00:00Z,29.1015,-89.9782,0.0,1.73,209.0,,'11111222,11111222,99999999' 
WAVCIS,ioos:station:WAVCIS:CSI09:1,2010-05-06T12:00:00Z,29.1015,-89.9782,0.0,1.537,193.0,,'11111222,11111222,99999999' 
WAVCIS,ioos:station:WAVCIS:CSI09:1,2010-05-06T13:00:00Z,29.1015,-89.9782,0.0,1.785,154.0,,'11111222,11111222,99999999' 
WAVCIS,ioos:station:WAVCIS:CSI09:1,2010-05-06T14:00:00Z,29.1015,-89.9782,0.0,1.543,134.0,,'11111222,11111222,99999999' 
WAVCIS,ioos:station:WAVCIS:CSI09:1,2010-05-06T15:00:00Z,29.1015,-89.9782,0.0,1.998,145.0,,'11111222,11111222,99999999' 
WAVCIS,ioos:station:WAVCIS:CSI09:1,2010-05-06T16:00:00Z,29.1015,-89.9782,0.0,1.579,122.0,,'11111222,11111222,99999999' 
WAVCIS,ioos:station:WAVCIS:CSI09:1,2010-05-06T17:00:00Z,29.1015,-89.9782,0.0,1.916,118.0,,'11111222,11111222,99999999' 
WAVCIS,ioos:station:WAVCIS:CSI09:1,2010-05-06T18:00:00Z,29.1015,-89.9782,0.0,2.578,123.0,,'11111222,11111222,99999999' 
WAVCIS,ioos:station:WAVCIS:CSI09:1,2010-05-06T19:00:00Z,29.1015,-89.9782,0.0,2.65,136.0,,'11111222,11111222,99999999' 
WAVCIS,ioos:station:WAVCIS:CSI09:1,2010-05-06T20:00:00Z,29.1015,-89.9782,0.0,2.276,149.0,,'11111222,11111222,99999999' 
WAVCIS,ioos:station:WAVCIS:CSI09:1,2010-05-06T21:00:00Z,29.1015,-89.9782,0.0,2.146,153.0,,'11111222,11111222,99999999' 
WAVCIS,ioos:station:WAVCIS:CSI09:1,2010-05-06T22:00:00Z,29.1015,-89.9782,0.0,1.757,147.0,,'11111222,11111222,99999999' 
WAVCIS,ioos:station:WAVCIS:CSI09:1,2010-05-06T23:00:00Z,29.1015,-89.9782,0.0,2.233,145.0,,'11111222,11111222,99999999' 
WAVCIS,ioos:station:WAVCIS:CSI09:1,2010-05-07T00:00:00Z,29.1015,-89.9782,0.0,2.134,121.0,,'11111222,11111222,99999999' 
WAVCIS,ioos:station:WAVCIS:CSI09:1,2010-05-07T01:00:00Z,29.1015,-89.9782,0.0,3.184,128.0,,'11111222,11111222,99999999' 
WAVCIS,ioos:station:WAVCIS:CSI09:1,2010-05-07T02:00:00Z,29.1015,-89.9782,0.0,4.016,144.0,,'11111222,11111222,99999999' 
WAVCIS,ioos:station:WAVCIS:CSI09:1,2010-05-07T03:00:00Z,29.1015,-89.9782,0.0,5.105,146.0,,'11111222,11111222,99999999' 
WAVCIS,ioos:station:WAVCIS:CSI09:1,2010-05-07T04:00:00Z,29.1015,-89.9782,0.0,5.333,155.0,,'11111222,11111222,99999999' 
WAVCIS,ioos:station:WAVCIS:CSI09:1,2010-05-07T05:00:00Z,29.1015,-89.9782,0.0,6.56,171.0,,'11111222,11111222,99999999' 
WAVCIS,ioos:station:WAVCIS:CSI09:1,2010-05-07T06:00:00Z,29.1015,-89.9782,0.0,7.72,179.0,,'11111222,11111222,99999999' 
WAVCIS,ioos:station:WAVCIS:CSI09:1,2010-05-07T07:00:00Z,29.1015,-89.9782,0.0,5.474,185.0,,'11111222,11111222,99999999' 
WAVCIS,ioos:station:WAVCIS:CSI09:1,2010-05-07T08:00:00Z,29.1015,-89.9782,0.0,7.49,178.0,,'11111222,11111222,99999999' 
WAVCIS,ioos:station:WAVCIS:CSI09:1,2010-05-07T09:00:00Z,29.1015,-89.9782,0.0,7.09,180.0,,'11111222,11111222,99999999' 
WAVCIS,ioos:station:WAVCIS:CSI09:1,2010-05-07T10:00:00Z,29.1015,-89.9782,0.0,4.242,198.0,,'11111222,11111222,99999999' 
WAVCIS,ioos:station:WAVCIS:CSI09:1,2010-05-07T11:00:00Z,29.1015,-89.9782,0.0,4.121,203.0,,'11111222,11111222,99999999' 
WAVCIS,ioos:station:WAVCIS:CSI09:1,2010-05-07T12:00:00Z,29.1015,-89.9782,0.0,3.439,198.0,,'11111222,11111222,99999999' 
WAVCIS,ioos:station:WAVCIS:CSI09:1,2010-05-07T13:00:00Z,29.1015,-89.9782,0.0,3.855,195.0,,'11111222,11111222,99999999' 
WAVCIS,ioos:station:WAVCIS:CSI09:1,2010-05-07T14:00:00Z,29.1015,-89.9782,0.0,4.188,191.0,,'11111222,11111222,99999999' 
WAVCIS,ioos:station:WAVCIS:CSI09:1,2010-05-07T15:00:00Z,29.1015,-89.9782,0.0,4.086,196.0,,'11111222,11111222,99999999' 
WAVCIS,ioos:station:WAVCIS:CSI09:1,2010-05-07T16:00:00Z,29.1015,-89.9782,0.0,3.423,206.0,,'11111222,11111222,99999999' 
WAVCIS,ioos:station:WAVCIS:CSI09:1,2010-05-07T17:00:00Z,29.1015,-89.9782,0.0,4.003,214.0,,'11111222,11111222,99999999' 
WAVCIS,ioos:station:WAVCIS:CSI09:1,2010-05-07T18:00:00Z,29.1015,-89.9782,0.0,3.672,217.0,,'11111222,11111222,99999999' 
WAVCIS,ioos:station:WAVCIS:CSI09:1,2010-05-07T19:00:00Z,29.1015,-89.9782,0.0,3.365,222.0,,'11111222,11111222,99999999' 
WAVCIS,ioos:station:WAVCIS:CSI09:1,2010-05-07T20:00:00Z,29.1015,-89.9782,0.0,3.23,230.0,,'11111222,11111222,99999999' 
WAVCIS,ioos:station:WAVCIS:CSI09:1,2010-05-07T21:00:00Z,29.1015,-89.9782,0.0,4.105,235.0,,'11111222,11111222,99999999' 
WAVCIS,ioos:station:WAVCIS:CSI09:1,2010-05-07T22:00:00Z,29.1015,-89.9782,0.0,3.469,237.0,,'11111222,11111222,99999999' 
WAVCIS,ioos:station:WAVCIS:CSI09:1,2010-05-07T23:00:00Z,29.1015,-89.9782,0.0,2.606,197.0,,'11111222,11111222,99999999' 
WAVCIS,ioos:station:WAVCIS:CSI09:1,2010-05-08T00:00:00Z,29.1015,-89.9782,0.0,2.528,221.0,,'11111222,11111222,99999999' 
WAVCIS,ioos:station:WAVCIS:CSI09:1,2010-05-08T01:00:00Z,29.1015,-89.9782,0.0,3.364,186.0,,'11111222,11111222,99999999' 
WAVCIS,ioos:station:WAVCIS:CSI09:1,2010-05-08T02:00:00Z,29.1015,-89.9782,0.0,4.09,218.0,,'11111222,11111222,99999999' 
WAVCIS,ioos:station:WAVCIS:CSI09:1,2010-05-08T03:00:00Z,29.1015,-89.9782,0.0,3.321,202.0,,'11111222,11111222,99999999' 
WAVCIS,ioos:station:WAVCIS:CSI09:1,2010-05-08T04:00:00Z,29.1015,-89.9782,0.0,4.667,218.0,,'11111222,11111222,99999999' 
WAVCIS,ioos:station:WAVCIS:CSI09:1,2010-05-08T05:00:00Z,29.1015,-89.9782,0.0,6.014,233.0,,'11111222,11111222,99999999' 
WAVCIS,ioos:station:WAVCIS:CSI09:1,2010-05-08T06:00:00Z,29.1015,-89.9782,0.0,5.04,234.0,,'11111222,11111222,99999999' 
WAVCIS,ioos:station:WAVCIS:CSI09:1,2010-05-08T07:00:00Z,29.1015,-89.9782,0.0,5.398,231.0,,'11111222,11111222,99999999' 
WAVCIS,ioos:station:WAVCIS:CSI09:1,2010-05-08T08:00:00Z,29.1015,-89.9782,0.0,6.151,237.0,,'11111222,11111222,99999999' 
WAVCIS,ioos:station:WAVCIS:CSI09:1,2010-05-08T09:00:00Z,29.1015,-89.9782,0.0,6.395,240.0,,'11111222,11111222,99999999' 
WAVCIS,ioos:station:WAVCIS:CSI09:1,2010-05-08T10:00:00Z,29.1015,-89.9782,0.0,7.07,236.0,,'11111222,11111222,99999999' 
WAVCIS,ioos:station:WAVCIS:CSI09:1,2010-05-08T11:00:00Z,29.1015,-89.9782,0.0,6.591,255.0,,'11111222,11111222,99999999' 
WAVCIS,ioos:station:WAVCIS:CSI09:1,2010-05-08T12:00:00Z,29.1015,-89.9782,0.0,6.755,243.0,,'11111222,11111222,99999999' 
WAVCIS,ioos:station:WAVCIS:CSI09:1,2010-05-08T13:00:00Z,29.1015,-89.9782,0.0,7.94,271.0,,'11111222,11111222,99999999' 
WAVCIS,ioos:station:WAVCIS:CSI09:1,2010-05-08T14:00:00Z,29.1015,-89.9782,0.0,6.068,261.0,,'11111222,11111222,99999999' 
WAVCIS,ioos:station:WAVCIS:CSI09:1,2010-05-08T15:00:00Z,29.1015,-89.9782,0.0,5.664,277.0,,'11111222,11111222,99999999' 
WAVCIS,ioos:station:WAVCIS:CSI09:1,2010-05-08T16:00:00Z,29.1015,-89.9782,0.0,4.82,284.0,,'11111222,11111222,99999999' 
WAVCIS,ioos:station:WAVCIS:CSI09:1,2010-05-08T17:00:00Z,29.1015,-89.9782,0.0,2.654,309.0,,'11111222,11111222,99999999' 
WAVCIS,ioos:station:WAVCIS:CSI09:1,2010-05-08T18:00:00Z,29.1015,-89.9782,0.0,2.223,5.0,,'11111222,11111222,99999999' 
WAVCIS,ioos:station:WAVCIS:CSI09:1,2010-05-08T19:00:00Z,29.1015,-89.9782,0.0,4.933,356.0,,'11111222,11111222,99999999' 
WAVCIS,ioos:station:WAVCIS:CSI09:1,2010-05-08T20:00:00Z,29.1015,-89.9782,0.0,4.886,358.0,,'11111222,11111222,99999999' 
WAVCIS,ioos:station:WAVCIS:CSI09:1,2010-05-08T21:00:00Z,29.1015,-89.9782,0.0,4.781,349.0,,'11111222,11111222,99999999' 
WAVCIS,ioos:station:WAVCIS:CSI09:1,2010-05-08T22:00:00Z,29.1015,-89.9782,0.0,6.328,337.0,,'11111222,11111222,99999999' 
WAVCIS,ioos:station:WAVCIS:CSI09:1,2010-05-08T23:00:00Z,29.1015,-89.9782,0.0,7.45,0.0,,'11111222,11111222,99999999' 
WAVCIS,ioos:station:WAVCIS:CSI09:1,2010-05-09T00:00:00Z,29.1015,-89.9782,0.0,7.96,5.0,,'11111222,11111222,99999999' 
WAVCIS,ioos:station:WAVCIS:CSI09:1,2010-05-09T01:00:00Z,29.1015,-89.9782,0.0,7.82,22.0,,'11111222,11111222,99999999' 
WAVCIS,ioos:station:WAVCIS:CSI09:1,2010-05-09T02:00:00Z,29.1015,-89.9782,0.0,8.21,24.0,,'11111222,11111222,99999999' 
WAVCIS,ioos:station:WAVCIS:CSI09:1,2010-05-09T03:00:00Z,29.1015,-89.9782,0.0,8.41,26.0,,'11111222,11111222,99999999' 
WAVCIS,ioos:station:WAVCIS:CSI09:1,2010-05-09T04:00:00Z,29.1015,-89.9782,0.0,8.51,33.0,,'11111222,11111222,99999999' 
WAVCIS,ioos:station:WAVCIS:CSI09:1,2010-05-09T05:00:00Z,29.1015,-89.9782,0.0,7.33,29.0,,'11111222,11111222,99999999' 
WAVCIS,ioos:station:WAVCIS:CSI09:1,2010-05-09T06:00:00Z,29.1015,-89.9782,0.0,8.64,34.0,,'11111222,11111222,99999999' 